星链-11607 (STARLINK-11607)

导读

STARLINK-11607是美国SpaceX公司星链(Starlink)星座中的一颗通信卫星,于2025年3月3日发射升空。作为星链低轨互联网星座的组成部分,它运行于近地轨道,主要为全球范围内提供高速卫星互联网接入服务,助力消除数字鸿沟,满足偏远地区、移动载体等场景的网络需求,该卫星目前处于在轨运行状态,是SpaceX大规模卫星组网计划的一环。

基本信息
目录编号:
63140
目录名称:
STARLINK-11607
国际标识:
2025-043J
轨道中心:
EARTH
卫星名称:
星链-11607
卫星全名:
星链-11607 (STARLINK-11607)
卫星状态:
在轨 (已飞行551 天)
发射日期:
2025-03-03 UTC
国别 :
美国 (US)
星等 :
--
轨道信息
数据来源 国际轨道数据
星历时间: 2026-09-04T10:16:38+0800
1天前
查看轨道信息
半长轴: 6734.619km
偏心率: 0.0001392
轨道倾角: 43.000°
近地点辐角 254.999°
升交点赤经 255.078°
平近点角 105.073°
近地点: 355.544km
远地点: 357.42km
周期: 91.670分钟
每日圈数: 15.708447
详细信息
固有亮度:
5
最大亮度:
2.5
卫星平台:
Starlink V1.0
覆盖范围:
全球
运营商:
太空探索技术公司
运营商所在国:
美国
制造商(研发单位):
太空探索技术公司
制造商所在国:
美国
使用方式:
暂无
卫星简介
Starlink 计划是 SpaceX 推出的全球卫星互联网项目,通过发射低轨道卫星,为全球尤其是偏远地区提供高速、低延迟的互联网服务。自 2019 年起,Starlink 已部署数千颗卫星,旨在缩小全球数字鸿沟,推动互联网普及。该项目还为军事、航空等行业提供通信支持,带来广泛经济效益。
2D轨道图
3D轨道图
轨道高度分析图
轨道倾角分析图
轨道综合分析图
查看轨道综合分析图
交会数据列表
事件ID 空间交会对象 最接近时刻(TCA) 交会距离 交会风险概率(CRP) 交会风险指数(CRI) 操作
CDM_260906-232506-314006-318521
2026-09-06T
23:25:41+0000
2.921 km
极远距离
8.30335E-7 极低风险 0.33